Wind_Speed
72 71 71 71 70 70 70 70 70 70 70 70 70 70 69 69 69 70 70 70 71 71 72 73 73 74 74 74 75 75 75 75 75 75 75 77 78 80 80 80 79 79 79 80 80 81 80 79 77 76 76 77 77 78 77 74 72 71 71 70 69 68 67 66 65 64 66 65 61 59 57 53 49 47 48 51 49 47 47 45 42 41 41 39 38
72 72 72 72 72 72 71 71 72 71 72 72 72 72 72 72 72 72 72 73 73 74 74 74 75 75 75 76 76 76 76 77 76 76 76 77 79 80 82 82 82 82 82 81 82 83 83 82 81 81 79 78 77 77 78 78 76 74 72 71 71 71 70 69 68 68 69 68 65 63 59 52 50 52 52 51 51 50 49 48 46 45 45 45 42
72 72 72 72 72 72 72 73 73 73 73 74 74 74 74 74 74 74 74 74 75 76 76 76 76 76 76 77 76 76 77 77 78 78 78 79 79 81 82 83 84 84 84 84 84 84 84 83 83 83 83 82 80 79 78 78 79 78 76 73 72 73 73 72 71 70 72 72 68 66 62 53 51 56 55 52 52 52 51 51 50 48 48 49 47
73 72 71 72 72 73 73 73 74 74 75 75 75 75 75 75 76 76 76 76 76 77 78 78 79 78 78 78 77 77 77 77 78 78 79 80 81 82 83 84 84 85 86 86 86 86 85 84 85 85 85 84 84 84 82 80 79 80 80 77 73 73 75 76 74 73 74 76 72 69 66 58 54 56 57 56 56 55 53 54 53 52 51 52 52
75 74 72 73 73 74 74 73 74 74 75 75 76 76 76 77 77 78 78 78 78 78 78 79 79 80 80 80 79 79 78 78 78 79 79 81 81 83 83 84 85 85 86 87 87 87 86 85 86 86 86 85 85 86 87 85 82 81 82 82 79 75 75 76 77 77 77 77 76 73 69 64 59 57 57 60 61 59 57 55 55 56 55 54 54
78 77 75 75 76 77 76 75 75 75 75 76 76 76 77 77 77 78 78 78 78 78 78 79 79 80 82 82 82 81 80 79 79 80 80 81 82 83 83 84 84 85 85 86 87 87 87 86 86 87 87 86 86 86 88 89 87 85 83 84 84 82 79 76 76 78 79 78 78 76 73 69 64 60 59 62 64 62 60 57 57 58 58 57 57
82 81 79 79 80 80 79 78 78 78 78 78 78 77 77 77 77 78 77 78 78 78 78 78 79 80 81 82 83 83 83 82 81 81 82 83 83 83 83 83 83 84 85 85 86 87 87 87 87 87 88 88 87 87 88 89 89 89 87 85 84 85 85 82 78 77 78 79 80 79 77 73 69 64 60 62 65 63 60 59 60 61 60 60 60
86 85 84 83 84 84 83 82 82 81 81 80 80 79 79 79 78 78 78 78 78 78 79 79 79 80 81 82 83 83 84 84 84 84 84 84 85 84 84 83 83 83 84 84 85 86 86 87 87 87 88 88 89 89 89 89 89 89 90 88 86 85 86 87 85 81 80 81 81 81 79 76 72 66 61 62 63 63 63 63 63 63 63 63 63
89 89 88 88 88 88 87 86 86 85 84 83 82 82 81 81 80 80 79 79 79 79 80 80 81 81 81 81 82 82 84 85 86 87 86 86 86 85 85 85 84 84 84 84 84 84 85 86 87 87 88 88 89 89 90 90 90 90 90 90 90 88 87 87 87 86 85 84 83 82 80 77 72 66 65 68 68 66 68 68 66 65 65 65 65
92 92 92 92 91 91 90 89 89 89 88 86 85 84 84 83 83 82 82 82 82 82 82 82 82 82 81 81 82 82 83 85 87 88 88 88 88 87 87 86 86 85 85 85 85 85 85 85 86 87 88 88 89 90 90 91 91 91 91 91 91 91 90 89 88 88 89 89 87 84 81 80 76 69 69 75 75 71 71 72 70 68 67 66 66
95 94 93 94 94 93 93 93 92 92 90 89 88 87 86 86 85 85 85 85 85 85 84 84 84 83 82 82 83 83 84 85 87 88 89 89 89 89 88 88 87 87 87 87 87 86 86 86 86 86 87 88 89 90 90 91 91 92 92 92 92 92 92 91 90 90 92 92 91 88 85 84 82 76 74 77 79 76 73 73 72 70 69 69 68
97 96 96 95 95 95 95 95 94 94 92 91 90 89 88 88 88 88 88 88 88 87 87 86 85 85 84 84 84 84 85 87 88 89 89 90 90 90 89 89 89 89 88 88 88 88 88 87 87 87 87 88 89 90 90 90 91 92 92 93 93 93 93 92 92 92 93 94 93 92 91 89 86 82 79 80 83 82 79 77 74 71 70 70 68
94 96 97 97 97 97 98 97 96 95 94 93 92 90 90 89 89 89 90 90 90 90 89 88 87 86 86 86 86 86 87 88 89 90 90 90 90 90 90 90 90 90 90 90 89 89 89 89 88 88 88 89 89 90 90 90 91 92 93 93 93 94 94 94 93 93 94 94 94 93 94 94 91 87 84 84 86 85 83 81 78 74 74 73 71
90 92 94 96 97 98 99 99 98 97 95 94 93 92 91 91 91 91 91 92 92 92 91 89 88 88 87 87 87 88 88 90 91 91 91 91 92 91 91 91 91 91 91 91 91 90 90 90 90 89 89 89 90 90 90 91 92 92 92 93 93 94 95 95 94 94 94 94 94 93 94 95 94 91 88 87 88 87 86 86 83 79 78 76 74
86 87 89 92 94 96 97 98 97 97 96 95 94 93 93 92 93 93 93 94 94 94 92 91 90 89 89 88 88 88 89 91 92 93 93 94 93 93 92 92 92 92 92 92 92 92 91 91 91 91 90 90 90 91 92 92 92 92 92 92 93 94 95 95 95 95 95 95 94 94 94 94 95 94 91 89 89 88 89 90 87 84 81 79 76
80 82 84 87 90 93 94 94 93 93 93 92 91 91 91 91 92 92 93 94 95 94 93 92 91 91 90 90 89 89 90 91 92 93 94 95 96 95 94 94 93 93 93 92 92 92 92 92 92 92 92 92 92 93 93 93 93 93 92 93 93 94 94 94 95 96 96 96 94 94 93 93 95 96 94 92 90 90 91 91 89 87 85 83 80
77 79 79 81 85 88 89 89 89 88 88 87 87 86 86 87 88 88 89 90 91 89 89 89 89 89 89 89 89 89 90 92 93 94 95 96 97 97 96 95 94 94 93 93 93 93 93 93 93 93 93 93 94 95 95 95 94 93 93 92 92 93 93 94 94 95 96 96 95 94 93 93 95 97 96 93 91 92 93 92 90 88 88 85 82
75 75 75 77 79 81 82 82 83 83 84 83 82 81 82 83 83 84 84 85 84 83 83 83 82 82 83 84 85 86 87 90 92 93 95 96 96 96 96 95 95 95 95 95 94 94 94 94 95 95 94 95 96 98 98 98 96 95 94 93 91 91 92 92 93 94 95 96 95 95 94 93 95 97 96 94 92 91 92 92 91 89 89 87 85
75 73 73 74 73 73 73 74 76 77 77 77 77 77 79 80 80 80 80 80 78 77 77 77 77 77 78 79 80 81 83 85 88 90 92 93 94 94 95 94 94 95 95 96 96 95 95 96 96 96 96 97 98 100 101 100 99 97 97 95 92 91 91 92 92 93 94 94 94 94 94 93 95 97 96 94 92 92 92 92 91 90 90 88 87
72 71 72 70 68 67 66 66 68 69 69 69 70 72 74 75 75 76 75 74 72 72 72 72 72 73 74 75 76 77 79 82 84 85 86 87 88 90 91 91 93 94 95 95 95 96 96 97 97 98 98 100 101 102 103 102 101 99 99 97 94 93 92 92 92 93 93 93 93 93 93 92 93 95 95 94 93 92 92 92 93 93 91 89 88
69 69 68 65 64 63 61 61 62 61 61 63 65 67 69 69 69 69 68 67 66 66 66 66 67 68 69 70 71 73 75 76 78 79 80 80 82 83 83 84 86 89 91 92 94 95 96 97 98 99 99 101 103 104 104 104 102 101 100 99 97 95 94 92 93 93 93 93 93 93 92 92 92 93 93 93 92 92 92 93 94 94 90 88 87
67 66 63 62 61 60 59 58 57 55 56 58 61 62 62 62 61 60 59 59 59 60 60 61 61 62 64 66 67 69 70 70 71 72 73 74 75 75 75 76 78 80 82 85 88 91 93 95 97 98 100 101 102 105 105 104 103 101 101 101 99 97 95 94 94 95 94 94 94 93 93 92 92 92 92 91 91 91 92 93 93 92 90 88 88
63 63 61 60 60 58 56 55 53 52 53 55 55 56 55 54 53 52 52 52 53 54 55 56 56 57 59 61 63 63 63 64 64 65 67 68 69 69 70 70 72 72 73 76 79 82 85 88 91 94 97 98 100 103 104 104 102 101 101 101 100 97 94 94 95 96 95 94 93 93 94 93 93 93 92 91 91 91 91 91 90 90 89 88 88
60 61 62 60 58 55 53 51 50 50 50 51 50 50 49 47 47 47 47 47 48 50 51 51 51 52 53 55 56 57 56 57 58 59 60 61 62 63 64 64 65 66 67 69 72 74 76 78 82 86 90 92 95 99 101 101 101 100 101 101 99 96 93 94 95 97 96 95 93 93 93 93 93 93 92 92 92 91 90 90 88 87 87 87 87
59 61 61 59 55 52 50 49 48 47 47 47 46 46 45 44 43 44 43 44 45 46 46 46 46 47 48 49 50 50 50 50 52 53 53 54 55 56 57 58 59 61 62 64 66 67 68 70 72 75 78 81 85 88 91 93 95 97 99 99 97 94 92 94 96 97 97 96 94 93 93 93 92 92 92 92 91 91 90 90 88 86 86 86 86
59 60 59 55 52 50 48 46 45 44 44 44 43 42 42 41 41 42 42 42 42 42 42 42 42 43 44 44 45 45 45 45 47 48 47 47 49 50 50 52 53 55 56 58 60 61 61 63 64 66 68 71 73 76 79 82 86 90 92 93 92 90 91 93 96 97 98 97 95 94 93 93 92 92 91 91 90 90 91 90 89 87 86 85 85
58 58 56 53 49 46 45 45 44 42 42 41 40 40 40 40 39 40 40 39 38 38 38 38 39 39 40 40 41 41 41 41 42 43 42 42 44 45 45 46 48 50 51 53 54 54 55 56 57 59 61 63 65 67 70 74 77 79 81 82 82 84 86 90 93 95 96 96 95 94 94 93 93 92 91 91 91 90 90 89 89 88 87 85 84
56 56 54 50 45 43 43 43 42 41 39 39 39 39 39 39 38 38 37 36 35 35 36 36 37 37 37 37 38 38 38 38 38 39 38 38 39 39 40 41 43 44 46 47 48 48 49 51 52 53 54 56 58 60 63 66 68 69 70 71 74 77 81 84 87 88 90 91 92 92 92 92 92 91 91 91 91 90 89 88 88 88 86 84 83
54 54 50 46 42 42 42 41 40 39 38 37 37 37 38 37 36 35 34 34 34 35 34 34 34 35 34 34 35 35 35 35 35 35 34 34 34 35 35 37 38 39 40 41 42 43 45 47 48 49 49 51 52 55 57 58 59 60 62 64 67 71 74 77 79 81 83 85 87 88 89 89 89 89 89 89 89 88 87 85 85 85 84 82 81
53 51 47 43 42 42 42 40 38 37 37 36 36 36 36 35 34 33 33 33 33 33 32 32 32 32 32 31 31 32 32 32 31 31 31 31 32 32 33 34 34 35 36 36 37 39 41 42 43 43 45 46 47 49 51 52 53 54 57 60 63 66 68 70 72 74 77 80 81 82 83 84 85 85 85 86 86 85 83 81 81 81 80 79 80
51 48 44 42 42 41 40 38 37 36 36 35 35 35 34 34 33 32 31 32 32 31 30 29 29 29 29 29 28 29 30 29 29 29 30 30 30 30 30 31 32 32 33 34 35 37 38 38 39 39 41 42 43 44 46 47 48 51 53 56 59 61 63 65 68 71 73 75 76 76 77 78 79 79 80 81 81 80 78 77 77 77 77 78 79
49 46 44 43 41 39 38 37 36 36 35 34 34 34 33 32 31 31 30 30 30 28 27 27 27 27 27 27 27 28 29 28 28 28 29 29 29 29 30 30 30 31 32 33 34 35 36 36 36 37 38 39 40 41 42 44 45 48 50 52 54 57 60 62 65 67 68 70 71 71 71 72 73 74 74 75 75 75 75 75 75 75 75 75 76
46 45 44 42 39 38 36 36 36 35 34 33 33 33 32 31 29 29 29 29 27 26 25 25 26 26 26 27 27 28 28 28 27 28 29 29 29 30 31 31 31 31 32 33 33 34 34 35 36 36 37 38 38 39 40 41 42 44 46 48 50 53 55 58 60 62 63 65 66 66 66 67 67 68 69 70 70 70 70 71 71 71 72 73 73
45 45 43 40 38 36 35 35 35 34 33 32 32 32 32 29 27 27 28 27 25 24 24 25 25 25 26 27 27 28 28 28 28 28 29 30 30 30 31 33 32 32 33 35 35 35 35 35 35 36 37 37 38 38 38 39 40 42 44 46 48 49 51 53 55 57 58 60 60 61 61 61 63 64 65 65 65 65 65 66 67 68 68 68 69
45 45 42 39 36 35 35 36 35 33 32 31 32 32 30 27 26 26 27 26 24 23 23 24 24 25 26 27 27 28 28 28 28 29 29 30 30 30 31 32 33 32 33 35 37 37 37 37 36 36 36 36 36 37 38 39 40 41 43 44 46 48 50 51 52 53 54 55 56 56 56 57 59 61 61 61 61 61 62 63 64 65 64 65 65
45 43 40 37 35 34 35 36 35 33 31 30 31 31 28 26 25 26 26 25 23 23 23 24 24 25 26 27 27 28 28 28 28 28 29 29 29 29 29 31 32 32 32 35 37 37 37 37 37 36 36 36 36 36 37 38 39 41 42 44 46 47 49 49 50 51 51 52 52 52 53 54 55 56 56 56 57 59 60 61 62 62 63 63 64
44 42 39 36 33 33 35 36 34 32 30 30 30 30 27 25 25 25 25 24 22 22 23 23 24 24 26 27 27 27 27 28 27 28 28 29 29 30 30 31 31 32 32 34 36 36 35 35 35 36 36 36 37 36 36 36 38 40 42 44 46 47 48 49 49 49 49 49 49 49 50 51 52 52 52 53 55 57 58 59 60 61 62 63 63
42 40 37 35 32 32 34 35 33 31 29 29 30 28 26 25 25 24 24 22 21 21 22 23 23 24 25 26 26 26 26 27 27 27 28 29 30 31 32 31 32 33 33 34 36 36 36 35 35 35 35 36 35 35 36 36 37 38 40 42 44 46 47 48 48 47 46 46 46 46 47 48 48 48 49 51 54 55 57 58 59 60 61 61 62
41 38 36 33 31 31 34 35 33 30 28 29 29 28 26 25 24 23 23 22 21 21 22 22 23 24 24 25 25 25 25 26 27 27 28 28 29 31 32 32 33 34 35 36 38 38 38 37 37 38 37 36 35 35 36 37 37 37 38 39 41 43 45 45 45 44 44 44 44 45 45 45 45 46 49 51 53 54 55 56 56 57 58 60 61
40 37 34 32 30 31 34 34 32 29 28 28 28 27 26 25 24 23 22 21 21 21 22 22 23 23 23 23 23 23 23 24 25 25 26 26 28 29 30 32 33 34 35 37 39 41 41 41 40 40 40 38 36 35 36 37 38 38 37 36 37 39 40 41 41 41 42 43 43 43 43 44 45 47 49 50 51 51 52 53 54 55 57 58 59
38 36 33 31 30 31 33 33 31 29 28 28 28 27 26 25 23 22 22 21 20 20 21 21 22 22 22 22 21 21 21 21 22 22 23 23 24 25 27 29 31 32 34 36 38 40 42 42 42 41 40 38 37 35 35 35 37 37 35 33 34 35 37 37 38 39 40 41 42 43 44 45 47 48 48 48 48 49 49 50 52 53 54 55 56
37 35 33 31 30 32 33 32 30 28 28 28 28 27 26 25 24 23 22 21 20 20 20 20 21 21 20 19 18 18 18 19 19 19 19 19 20 21 23 25 27 28 30 32 34 36 37 38 38 38 37 36 35 34 33 34 36 36 34 33 33 34 35 35 36 37 39 40 41 42 44 45 46 46 47 47 47 48 49 50 50 51 52 54 57
37 35 33 31 30 31 32 32 30 28 28 28 28 27 27 26 24 23 22 21 20 20 20 19 19 19 18 16 15 16 16 16 16 15 15 15 16 17 19 21 22 24 25 27 28 30 31 32 33 34 33 33 32 32 32 34 35 35 34 33 33 33 33 34 34 35 37 39 40 42 43 44 45 46 47 49 50 51 52 53 54 55 57 59 60
36 35 33 31 30 31 32 31 29 28 27 28 28 28 27 26 25 23 22 21 21 20 19 19 18 17 15 14 14 14 14 13 13 12 12 12 13 14 16 18 20 21 22 23 24 25 25 26 27 28 28 29 30 31 32 34 34 33 33 32 32 33 34 34 35 36 37 39 40 41 42 44 46 47 49 52 55 56 57 58 58 59 61 62 62
36 34 33 31 31 31 31 31 29 28 28 28 28 28 28 27 25 24 22 22 21 20 19 18 17 15 13 12 12 12 11 11 10 9 9 9 10 12 15 18 20 20 20 21 22 22 23 23 24 25 26 28 30 32 32 32 32 32 32 32 33 33 33 34 34 35 36 38 40 41 43 45 47 48 49 51 53 55 56 57 58 59 61 61 61
37 35 33 32 31 31 31 30 29 28 28 29 29 29 29 28 26 24 23 22 22 21 20 19 17 14 12 12 11 10 10 9 9 9 9 10 12 15 17 20 22 23 23 23 24 25 26 27 28 29 30 30 30 30 30 30 30 30 31 31 32 32 32 33 34 35 36 38 40 42 43 45 46 46 47 49 50 51 54 56 57 58 59 59 58
38 35 34 32 31 31 31 30 29 29 29 30 30 30 30 29 27 25 24 23 23 22 21 19 17 14 12 12 11 10 9 10 10 11 12 13 15 18 20 22 24 26 28 29 31 32 33 33 33 32 32 31 31 31 31 31 30 30 31 31 31 32 33 34 35 36 37 38 39 41 43 45 45 46 47 49 51 53 55 56 56 56 56 56 56
38 36 35 33 31 31 31 31 30 30 30 31 31 31 31 30 29 27 25 25 24 24 22 20 18 15 13 12 12 12 11 12 13 14 15 16 17 20 23 26 28 31 33 35 35 36 37 36 35 34 33 32 32 33 33 32 31 30 30 31 31 32 33 34 35 36 38 39 41 43 45 46 47 49 51 52 54 55 55 55 54 53 54 55 56
39 37 35 34 32 31 31 32 31 31 31 32 33 32 32 32 30 28 27 26 26 26 24 22 19 17 15 14 14 14 15 15 16 17 18 18 19 23 27 31 34 35 37 38 38 38 38 37 36 35 33 32 32 32 32 31 31 30 30 30 30 31 32 33 34 36 38 41 43 45 48 49 51 53 55 56 55 55 54 53 53 53 54 55 56
40 38 36 35 33 32 32 33 32 32 32 33 34 33 33 33 32 30 29 28 28 28 26 23 21 19 17 17 18 18 18 19 20 20 20 20 22 24 27 31 35 38 39 39 39 39 38 38 37 35 33 32 31 31 31 32 33 34 33 33 33 33 34 35 36 37 39 40 43 46 50 53 54 55 55 54 53 53 53 53 53 54 55 56 58
41 39 38 36 34 33 33 33 34 33 33 34 35 35 34 34 33 32 31 30 31 30 28 26 23 21 20 20 21 22 22 22 23 24 24 24 23 23 24 28 33 37 39 39 39 38 37 37 36 34 33 32 32 33 34 35 37 37 37 36 36 37 38 39 40 40 41 43 47 51 54 55 54 53 53 53 52 53 53 53 54 56 58 59 59
Wind_Direction
258 258 258 258 258 258 257 256 255 255 255 255 255 254 254 254 253 253 252 252 251 251 250 250 249 248 248 247 246 246 246 245 244 244 243 243 243 243 243 243 243 242 241 241 241 242 242 242 241 240 236 233 233 234 235 235 237 240 243 245 246 246 246 247 247 246 248 250 250 250 252 253 253 250 248 250 253 254 256 260 262 264 265 264 261
257 257 257 257 257 258 257 257 257 256 256 256 256 255 255 255 254 254 253 252 252 251 250 250 250 249 249 248 247 247 247 246 245 244 244 244 244 244 243 243 243 243 242 241 241 241 241 241 242 242 242 239 235 233 234 235 236 237 240 242 245 247 247 247 247 248 249 250 250 250 252 252 252 253 251 251 253 256 258 260 262 264 266 267 265
258 257 257 257 257 257 257 257 257 257 257 257 257 256 256 255 255 255 254 254 253 252 251 251 250 250 250 249 248 248 248 247 247 246 245 244 244 244 244 243 243 243 243 243 242 241 241 241 241 241 242 242 241 237 235 235 236 237 238 239 241 244 246 247 247 248 250 251 251 251 252 250 249 253 255 255 255 257 258 260 262 264 266 266 266
259 258 258 258 257 257 257 257 257 257 257 257 257 257 257 256 256 255 255 255 254 253 252 252 251 251 250 250 249 249 248 248 247 247 246 245 245 244 244 244 244 243 243 243 243 243 242 242 242 242 241 241 242 242 240 237 236 237 238 239 238 239 242 246 247 248 249 251 253 253 254 251 247 249 253 255 255 256 257 259 261 263 264 264 265
259 258 258 259 259 258 258 257 257 257 257 257 257 257 257 256 256 256 255 255 255 254 253 253 252 252 251 251 250 249 248 248 248 248 247 246 245 245 245 244 244 244 243 243 243 243 243 242 242 243 242 241 241 243 243 241 238 237 237 239 239 238 238 241 245 247 249 251 252 253 253 252 249 247 249 252 254 255 256 257 259 261 262 263 263
259 258 258 259 259 259 258 258 258 258 258 258 257 257 257 257 257 256 256 256 255 255 254 253 252 252 252 251 251 250 249 248 248 248 247 247 246 246 245 245 245 244 244 244 243 243 243 242 243 243 243 243 242 242 243 243 242 240 238 238 240 241 240 239 240 243 247 250 252 253 253 252 250 248 247 249 252 253 255 257 258 259 260 260 261
259 259 258 258 259 259 258 258 258 257 258 258 258 258 257 257 257 257 257 257 256 256 255 254 253 252 252 252 251 251 250 249 248 247 247 247 247 246 246 245 245 245 245 244 244 244 243 242 242 243 243 243 243 243 243 243 244 244 242 240 239 240 242 242 241 240 243 246 249 252 254 254 253 251 248 248 250 252 254 255 255 255 257 259 261
259 259 258 258 258 258 258 258 258 257 257 257 257 257 257 257 257 257 257 256 256 256 256 255 254 253 253 252 252 251 251 250 249 248 247 247 247 247 246 246 246 246 246 245 245 244 244 243 243 243 243 243 244 244 244 244 244 244 245 244 242 241 241 242 243 243 243 243 245 247 252 255 256 255 251 248 249 251 251 252 253 254 255 258 260
257 257 258 257 257 258 258 258 258 258 257 257 257 257 257 257 257 257 256 256 256 256 256 255 255 254 254 253 253 252 252 251 250 249 248 247 247 247 247 246 246 247 247 246 246 246 245 244 244 243 243 243 244 244 245 245 245 245 245 246 245 244 242 242 242 243 245 246 245 243 245 250 253 254 251 249 249 250 250 251 252 253 254 256 259
256 256 257 257 257 257 257 258 258 258 258 258 257 257 257 257 257 257 256 256 256 256 255 255 255 254 254 254 254 254 253 252 251 250 249 248 247 246 246 247 247 247 247 247 247 247 246 246 245 245 244 244 244 244 245 245 246 246 246 246 246 246 246 244 243 243 244 247 247 245 243 245 247 247 246 247 249 251 252 253 253 254 254 254 256
256 256 256 257 257 257 258 258 258 258 258 258 258 258 258 258 258 258 257 257 257 256 256 255 255 255 254 254 254 254 254 253 253 252 250 249 248 247 246 246 247 247 247 247 248 248 248 247 246 246 246 245 245 245 245 245 245 246 247 247 247 247 247 246 246 245 245 246 248 248 247 246 247 246 244 245 249 252 253 253 254 254 254 254 255
256 256 257 257 257 257 258 258 258 258 259 259 259 259 259 259 259 259 259 258 258 257 257 256 256 255 255 255 254 254 254 254 254 253 252 251 249 248 247 247 247 247 247 247 247 248 248 248 248 247 247 247 246 246 245 245 245 245 246 247 248 248 247 247 247 247 247 247 247 249 250 249 249 249 249 249 250 252 253 254 255 256 255 255 255
257 257 257 257 257 258 258 258 258 259 259 259 260 260 260 260 260 260 260 260 259 258 258 257 256 256 256 255 255 254 254 254 254 254 253 252 251 250 248 247 247 246 247 247 247 248 248 248 248 248 248 248 248 247 246 246 245 245 245 245 246 248 248 248 247 247 247 248 248 249 250 251 251 251 250 251 252 253 254 255 256 256 256 256 256
258 258 258 258 258 258 259 259 259 259 260 260 260 261 261 261 262 262 261 261 261 260 259 259 258 257 257 256 255 255 254 254 254 254 253 253 252 251 250 248 247 247 246 246 247 247 248 248 248 248 248 248 249 248 247 247 246 246 245 245 245 245 247 248 248 248 247 247 248 249 250 252 252 251 251 251 252 254 255 256 256 256 256 257 258
259 259 259 259 259 260 260 260 260 260 261 261 261 262 262 263 263 263 263 262 262 262 261 261 260 259 258 257 256 256 255 254 254 254 253 253 252 251 250 249 248 247 247 247 246 247 247 247 248 248 248 248 249 249 248 247 247 246 246 246 245 244 245 245 247 248 248 248 248 248 249 251 252 253 252 251 252 253 254 255 256 256 257 257 257
259 258 258 258 259 260 260 261 261 261 262 262 262 263 263 263 263 263 263 263 263 263 263 262 262 261 261 260 258 257 256 255 255 254 253 253 252 251 251 250 249 248 247 247 246 247 247 247 247 248 248 248 248 249 249 248 247 246 246 246 246 245 245 245 245 246 247 248 248 248 248 249 251 252 252 251 251 252 253 254 255 256 257 257 257
261 259 259 258 259 259 260 261 262 263 263 263 264 264 264 264 264 264 264 264 264 264 264 264 263 263 262 261 260 259 258 257 255 254 253 253 252 251 250 250 249 249 248 247 247 246 247 247 247 247 247 248 248 248 248 248 247 247 246 245 245 245 245 245 245 246 246 247 247 247 248 248 250 251 252 252 252 253 254 254 255 256 257 257 258
263 263 262 261 261 261 262 262 263 263 263 264 264 265 265 264 264 264 264 265 265 266 266 265 265 264 263 262 261 260 258 257 256 255 254 253 252 251 251 250 250 249 249 248 247 247 246 246 247 247 247 247 247 247 248 247 247 247 247 246 245 245 245 245 246 246 246 246 246 246 246 247 248 250 251 251 252 252 254 255 255 255 256 257 257
266 266 265 264 264 264 264 264 264 263 263 264 264 264 264 264 264 264 265 266 266 266 266 266 265 265 264 262 261 260 259 258 257 256 254 254 253 252 251 250 250 249 249 248 248 247 246 246 246 246 246 246 246 246 246 247 246 246 247 246 245 244 244 245 245 245 246 246 246 246 246 246 246 248 249 250 251 251 252 253 254 254 255 255 256
266 267 267 267 267 267 266 265 264 264 264 264 264 263 263 263 263 264 265 266 267 266 266 266 265 264 263 262 261 260 259 259 258 258 257 256 255 253 252 251 250 250 249 248 248 247 246 246 245 245 245 245 245 245 245 245 245 245 246 246 246 245 244 244 244 244 245 246 246 246 246 246 246 247 248 249 249 250 251 252 252 253 253 254 256
266 267 268 269 269 269 268 266 265 265 265 264 263 262 263 263 264 265 266 267 267 266 265 265 264 263 263 262 261 260 259 259 259 259 259 258 257 255 254 253 251 250 249 249 248 247 246 246 245 244 243 243 243 244 244 244 244 244 245 245 245 245 245 244 244 244 244 244 245 245 246 246 246 247 247 247 248 249 249 250 251 253 254 254 255
267 268 268 269 269 269 269 268 268 267 265 263 263 263 264 265 266 267 267 267 266 265 264 263 262 262 261 260 260 259 259 259 259 259 258 258 258 257 256 255 253 251 250 249 248 247 246 245 244 244 243 242 242 243 243 244 244 243 244 244 244 244 244 244 244 244 244 243 243 244 245 245 246 246 247 247 247 247 248 249 250 252 253 253 254
267 268 269 269 269 269 270 270 269 267 265 264 265 266 267 268 269 268 268 267 267 265 264 263 262 261 260 260 259 259 259 259 258 258 258 258 258 257 257 256 255 253 251 250 249 247 246 245 244 243 242 242 241 241 242 243 243 243 243 243 244 244 243 243 244 244 244 243 243 243 243 244 244 245 246 247 247 247 248 248 249 250 251 252 253
267 268 269 269 270 270 271 270 268 266 265 266 267 269 270 271 270 270 269 269 269 268 266 265 264 262 261 260 260 259 259 258 258 257 256 256 256 256 256 255 255 254 252 251 250 249 247 245 244 243 242 242 241 241 241 242 243 243 243 243 243 243 243 243 243 244 244 243 242 242 242 242 243 243 244 245 246 247 248 248 249 249 250 251 252
266 267 268 269 271 271 270 268 267 266 267 268 269 271 272 273 273 273 272 272 271 270 269 267 265 264 262 261 261 260 258 258 258 257 256 255 255 255 254 254 253 253 252 251 250 250 248 247 246 245 244 243 242 242 242 242 242 242 242 243 243 243 242 242 242 243 243 243 242 241 241 241 241 242 242 243 244 246 247 248 248 249 249 250 252
265 265 267 269 270 270 269 267 267 268 269 270 271 273 274 275 276 276 275 274 273 271 269 267 266 264 263 262 262 261 260 258 258 257 256 255 254 254 253 252 252 251 251 250 250 249 249 248 247 246 245 243 243 242 242 241 241 241 241 242 242 241 241 241 241 241 242 242 241 241 241 241 241 241 242 242 243 244 245 246 247 248 248 249 250
262 264 267 269 269 268 268 268 268 269 270 271 273 275 276 277 278 277 276 274 273 271 269 268 266 265 264 263 262 261 259 258 257 256 255 254 253 252 251 250 250 250 249 249 249 249 248 247 246 245 244 243 242 241 240 240 240 240 240 240 240 239 239 239 239 240 240 241 241 240 240 240 240 241 241 242 242 243 243 244 246 247 247 248 249
261 264 266 268 268 267 267 268 269 270 271 273 275 277 278 279 278 277 276 275 273 271 269 267 266 264 262 261 260 258 257 255 254 253 253 252 251 250 249 248 248 248 248 248 248 247 246 245 244 243 242 241 240 239 238 238 238 238 238 237 237 236 236 237 237 238 239 239 239 239 239 239 240 240 241 241 242 242 242 243 244 245 246 247 248
260 263 266 267 268 268 267 268 270 272 273 274 276 278 279 279 278 277 276 275 273 270 267 264 262 261 259 258 256 255 254 252 251 251 250 249 248 247 246 246 245 245 246 246 245 244 244 243 242 241 240 239 238 238 237 237 236 235 234 234 233 233 233 234 235 236 237 237 237 237 237 238 238 239 240 241 241 242 242 243 244 245 245 246 246
260 262 265 266 267 267 268 269 270 271 273 275 277 278 278 278 277 277 276 273 269 266 263 260 258 257 256 254 253 253 252 251 250 250 249 247 246 245 244 243 243 242 242 242 241 240 240 241 240 239 238 237 236 236 236 235 234 232 231 230 230 230 230 231 232 233 234 234 235 235 235 236 237 237 238 239 240 241 241 242 242 242 243 243 244
260 263 265 265 265 266 268 269 270 271 273 275 276 277 277 277 276 275 272 267 263 260 258 257 255 255 254 253 252 252 251 250 250 250 249 248 246 244 243 242 241 240 239 238 237 237 236 237 237 236 235 234 233 233 232 231 230 229 228 227 227 227 227 228 228 229 230 231 232 232 233 234 234 235 236 237 238 239 239 239 239 239 240 240 241
260 262 263 264 265 266 267 268 269 271 273 274 275 276 275 274 273 271 265 260 257 256 255 254 253 253 253 252 251 251 251 251 250 250 250 250 248 247 245 242 240 238 238 237 236 235 234 233 233 232 232 231 230 229 228 227 226 225 225 224 224 224 224 225 225 226 227 228 229 230 230 231 232 233 234 235 236 236 236 236 236 236 236 237 238
260 261 262 263 265 266 266 266 268 269 272 273 274 274 273 271 269 264 260 256 254 252 251 251 251 251 252 252 252 252 253 253 253 253 253 252 250 249 248 246 241 237 237 237 235 234 233 231 229 228 227 226 226 225 224 223 222 221 221 220 220 221 222 223 224 224 225 227 227 227 227 228 229 230 231 232 232 233 234 234 234 234 234 235 236
259 260 261 263 263 264 265 265 266 268 270 272 272 271 270 267 262 257 254 253 251 249 248 249 249 250 251 252 254 255 257 257 257 257 256 255 253 250 249 248 244 238 236 236 235 233 232 231 229 228 226 224 222 221 220 219 218 217 217 216 216 217 218 220 221 222 223 224 225 225 225 225 226 227 228 229 230 230 231 232 231 231 232 232 234
257 259 260 261 262 262 263 264 265 266 268 269 269 268 266 262 255 250 249 249 247 246 247 248 248 250 252 254 257 259 261 262 262 261 259 257 255 251 248 247 245 240 235 233 233 231 231 230 230 229 228 226 224 221 219 217 216 215 215 214 214 214 215 216 218 219 220 222 223 223 223 223 225 226 227 227 228 228 228 229 229 229 229 229 231
257 258 259 259 259 259 260 261 263 265 267 267 265 264 261 256 249 246 246 245 244 244 245 247 249 252 255 257 260 262 264 264 263 262 262 259 257 253 249 246 245 241 235 231 231 231 230 229 229 229 229 228 226 223 220 218 217 216 215 214 213 214 214 215 217 218 218 219 221 221 221 222 223 224 225 226 226 226 226 226 226 226 226 226 227
256 258 258 257 256 256 257 259 262 264 265 263 261 259 256 250 244 243 243 243 242 243 246 247 250 254 259 261 263 264 265 265 264 263 262 261 258 255 251 247 245 242 236 231 230 230 229 228 228 228 228 228 228 227 223 220 217 217 216 216 215 214 215 215 216 217 217 219 220 220 220 221 222 222 223 223 224 224 224 224 224 224 224 224 226
255 256 256 255 254 253 254 258 261 262 262 259 256 254 250 245 241 240 241 241 241 244 247 249 253 257 261 263 264 263 263 264 264 263 261 259 257 255 252 249 245 242 238 233 230 229 228 228 228 228 228 228 228 228 227 224 220 217 217 217 217 216 216 216 216 216 216 217 219 219 219 220 220 220 221 221 222 222 222 222 222 222 222 223 224
253 254 253 252 250 249 252 256 259 259 257 254 251 248 245 241 238 237 239 239 240 244 248 252 257 260 261 262 263 262 262 261 262 260 258 256 254 251 250 248 244 241 237 234 231 230 229 229 228 228 228 228 227 226 226 226 223 219 218 218 218 218 218 218 217 216 215 215 216 217 218 218 218 218 219 219 220 220 220 220 219 219 220 222 223
251 251 250 248 246 246 250 254 256 255 252 249 246 243 240 237 234 234 236 238 240 244 250 255 259 261 261 261 262 263 262 261 260 259 256 253 250 247 245 243 241 238 235 232 231 230 229 229 228 227 227 227 226 224 224 224 222 219 217 217 218 218 218 217 215 214 214 214 215 215 215 216 216 216 217 217 218 218 218 217 217 218 219 221 222
248 248 247 244 243 244 248 251 253 251 247 244 240 238 237 234 231 231 234 237 239 245 252 257 259 261 261 261 262 264 265 263 261 258 255 250 246 243 239 237 235 234 232 230 228 228 228 228 228 227 227 226 225 224 222 220 218 215 214 214 214 214 213 212 211 211 211 212 213 213 213 214 214 214 214 214 214 214 214 214 215 217 217 218 220
246 246 244 242 240 242 246 249 248 246 242 238 235 234 233 231 228 228 232 235 239 245 251 256 258 259 260 262 264 267 267 266 262 259 254 249 243 237 232 229 228 227 226 226 225 224 224 225 225 225 224 223 222 220 217 212 208 206 206 206 207 207 206 206 206 207 208 210 211 212 213 213 213 213 212 210 209 208 208 208 210 211 213 214 216
244 244 242 239 238 241 244 246 245 241 236 233 231 231 231 229 226 226 229 233 238 243 248 251 254 256 259 264 268 269 268 266 262 258 254 247 239 230 224 220 218 217 217 218 219 219 219 220 220 220 219 217 215 211 205 200 197 196 198 199 200 200 200 200 201 204 207 209 210 211 212 212 212 210 208 206 203 203 203 203 203 204 207 210 213
242 241 240 238 237 239 242 243 241 237 232 228 227 228 228 226 224 224 227 231 235 240 243 245 249 253 259 265 270 270 267 264 260 255 250 242 232 221 213 207 205 204 205 206 207 208 209 210 212 211 208 203 198 193 189 188 188 189 191 193 194 196 197 198 199 202 206 209 210 211 210 210 209 208 207 205 204 202 201 201 201 203 206 210 214
241 240 238 237 237 238 240 240 238 234 228 224 224 225 226 224 222 222 225 229 233 236 238 240 243 249 256 264 266 265 263 259 251 242 234 224 211 202 197 193 189 187 188 189 189 189 188 188 188 187 183 180 178 178 180 181 183 185 187 189 192 195 198 200 203 206 209 210 210 210 209 208 207 206 206 207 208 206 203 201 202 204 208 212 216
240 239 237 236 236 237 238 238 236 231 225 221 221 223 224 222 220 219 222 226 230 232 232 234 237 243 251 256 256 253 251 246 231 214 204 194 183 179 182 182 177 172 169 167 166 165 164 162 162 162 164 167 170 173 176 179 181 184 188 191 194 197 201 205 207 209 211 211 210 208 206 205 205 205 204 205 206 205 202 201 203 207 211 215 219
239 238 236 235 234 236 237 237 234 229 223 220 219 221 222 221 219 217 219 223 227 228 227 229 233 238 242 244 241 234 229 223 208 192 185 180 176 174 173 172 167 162 158 155 153 153 153 154 156 158 162 167 171 173 176 180 184 188 192 197 200 203 206 208 208 208 208 208 207 206 204 202 201 199 199 199 201 201 201 203 206 211 215 219 221
237 237 236 234 233 234 236 236 233 228 222 219 218 220 221 220 218 216 216 219 223 224 223 224 228 231 232 229 225 217 209 203 193 183 177 176 176 174 169 164 160 157 154 153 153 154 154 156 158 162 166 172 176 178 180 184 188 193 199 203 205 206 206 205 204 203 202 201 201 200 199 197 194 193 193 195 198 201 203 206 211 215 218 221 223
236 236 235 234 233 233 234 235 233 228 222 218 217 219 220 220 217 215 214 216 219 220 219 220 224 226 223 218 212 204 197 191 185 178 173 173 176 175 170 164 160 158 157 156 157 158 159 160 161 164 169 175 180 183 185 187 190 194 197 199 200 201 200 199 199 199 197 197 197 196 193 190 189 190 192 195 199 203 206 211 215 218 221 223 225
236 235 235 234 233 232 233 234 233 228 222 217 216 217 219 219 217 214 212 214 216 217 216 216 219 220 217 211 203 196 189 185 180 174 169 168 172 176 175 170 165 164 163 162 162 164 165 165 166 167 172 178 183 186 189 189 187 187 188 188 189 190 191 190 191 191 191 192 193 191 188 186 187 190 194 199 203 207 211 216 219 221 223 225 227
236 236 235 234 233 232 231 233 233 229 223 218 215 216 218 218 217 214 212 212 214 215 213 213 215 214 210 205 199 191 184 180 177 171 166 163 165 172 179 178 174 170 168 168 168 169 170 170 171 173 176 180 182 184 185 186 184 183 182 182 183 185 185 185 185 186 187 188 188 187 186 187 190 194 199 204 208 211 215 218 221 223 225 227 229
Height
10540 10542 10543 10544 10544 10545 10546 10548 10549 10551 10553 10555 10557 10559 10561 10563 10564 10566 10567 10568 10569 10570 10572 10573 10575 10577 10579 10582 10584 10586 10589 10592 10595 10598 10600 10602 10603 10604 10606 10608 10612 10616 10618 10621 10623 10626 10629 10632 10636 10639 10642 10646 10651 10653 10657 10660 10663 10665 10667 10670 10673 10676 10679 10682 10686 10687 10684 10686 10692 10693 10696 10701 10704 10706 10704 10703 10706 10707 10707 10710 10712 10713 10713 10714 10715
10530 10532 10533 10534 10534 10535 10537 10538 10539 10541 10543 10545 10547 10549 10552 10553 10554 10556 10557 10558 10559 10560 10562 10563 10564 10566 10569 10572 10574 10577 10579 10582 10585 10588 10591 10593 10594 10595 10596 10599 10602 10605 10608 10611 10614 10616 10620 10624 10627 10629 10632 10637 10642 10646 10649 10652 10655 10658 10659 10662 10665 10668 10670 10673 10676 10679 10677 10678 10684 10686 10690 10698 10700 10697 10697 10700 10701 10701 10703 10705 10707 10708 10708 10709 10710
10520 10522 10523 10524 10525 10525 10527 10528 10529 10531 10533 10535 10537 10539 10542 10544 10544 10546 10546 10547 10549 10550 10551 10553 10555 10557 10560 10562 10565 10568 10570 10573 10575 10579 10581 10583 10584 10585 10586 10589 10592 10595 10598 10601 10604 10607 10612 10616 10619 10621 10624 10629 10633 10637 10641 10643 10647 10651 10652 10654 10658 10660 10662 10665 10668 10671 10669 10669 10675 10680 10685 10694 10696 10691 10691 10695 10696 10696 10698 10700 10702 10703 10703 10703 10704
10510 10512 10514 10514 10515 10516 10517 10518 10520 10521 10523 10525 10527 10529 10531 10533 10534 10534 10536 10537 10538 10540 10542 10544 10546 10548 10550 10552 10555 10558 10561 10563 10566 10568 10571 10572 10574 10575 10576 10579 10582 10585 10588 10591 10594 10598 10603 10608 10610 10612 10616 10621 10625 10628 10631 10635 10639 10642 10644 10646 10650 10653 10654 10656 10660 10662 10662 10661 10666 10672 10678 10687 10691 10689 10688 10688 10688 10691 10694 10695 10697 10698 10698 10697 10698
10501 10502 10505 10505 10504 10505 10506 10508 10510 10511 10512 10514 10516 10518 10519 10521 10522 10523 10525 10526 10528 10530 10531 10534 10536 10538 10540 10541 10544 10548 10550 10553 10556 10558 10559 10561 10562 10564 10566 10568 10571 10575 10578 10581 10585 10589 10594 10599 10602 10603 10607 10613 10617 10618 10620 10625 10629 10633 10636 10638 10641 10645 10647 10649 10651 10653 10653 10655 10658 10663 10670 10677 10682 10685 10686 10681 10680 10684 10688 10691 10692 10692 10692 10691 10690
10490 10491 10496 10496 10494 10493 10495 10497 10499 10500 10502 10503 10505 10507 10508 10509 10511 10512 10514 10516 10517 10519 10521 10523 10525 10527 10528 10530 10533 10536 10539 10543 10546 10547 10548 10549 10551 10553 10555 10558 10561 10565 10568 10571 10575 10579 10584 10590 10593 10595 10598 10603 10607 10609 10610 10614 10618 10623 10628 10630 10633 10637 10639 10642 10644 10645 10645 10647 10649 10653 10660 10668 10673 10678 10681 10676 10673 10677 10681 10685 10687 10686 10685 10684 10683
10478 10480 10484 10485 10482 10482 10484 10486 10488 10489 10491 10492 10493 10495 10497 10499 10500 10502 10504 10505 10507 10508 10510 10512 10514 10516 10517 10519 10521 10525 10528 10532 10534 10536 10537 10538 10540 10542 10545 10548 10551 10555 10558 10561 10565 10569 10574 10579 10583 10586 10589 10592 10596 10599 10601 10603 10608 10612 10617 10621 10625 10628 10630 10633 10637 10639 10638 10638 10640 10644 10650 10656 10662 10669 10674 10671 10668 10671 10675 10678 10678 10677 10677 10676 10677
10466 10469 10471 10472 10471 10471 10472 10474 10475 10477 10479 10480 10482 10484 10485 10487 10489 10492 10494 10495 10497 10498 10499 10501 10502 10504 10506 10508 10511 10514 10517 10520 10522 10523 10525 10527 10529 10533 10536 10539 10542 10545 10548 10551 10555 10559 10564 10569 10573 10576 10579 10582 10585 10588 10591 10594 10598 10602 10605 10610 10615 10620 10622 10625 10628 10631 10631 10630 10633 10638 10641 10645 10652 10660 10666 10665 10663 10665 10666 10666 10668 10670 10670 10670 10672
10454 10456 10457 10459 10459 10460 10461 10462 10463 10464 10466 10468 10470 10472 10474 10476 10478 10481 10483 10484 10486 10487 10488 10489 10491 10493 10495 10498 10501 10503 10506 10508 10508 10510 10512 10515 10519 10523 10526 10529 10532 10535 10538 10541 10545 10549 10553 10557 10562 10566 10569 10572 10575 10578 10582 10584 10587 10592 10595 10598 10603 10609 10612 10615 10619 10623 10623 10622 10625 10631 10635 10638 10644 10652 10658 10656 10654 10655 10656 10657 10660 10663 10664 10665 10667
10442 10443 10445 10446 10447 10448 10449 10450 10450 10451 10454 10456 10458 10460 10463 10465 10467 10469 10471 10473 10474 10475 10477 10478 10479 10482 10485 10488 10490 10492 10494 10495 10495 10496 10499 10503 10507 10511 10515 10519 10522 10526 10529 10531 10535 10538 10542 10547 10551 10555 10559 10562 10565 10568 10572 10574 10577 10581 10585 10587 10592 10597 10600 10605 10610 10614 10615 10615 10617 10623 10629 10634 10638 10645 10650 10647 10644 10647 10649 10649 10652 10655 10657 10660 10662
10428 10430 10432 10434 10435 10436 10437 10438 10438 10439 10442 10444 10446 10449 10451 10453 10455 10457 10458 10460 10461 10463 10464 10466 10469 10472 10475 10477 10479 10480 10482 10482 10482 10484 10486 10490 10494 10499 10505 10508 10512 10516 10519 10521 10524 10528 10531 10536 10541 10544 10548 10551 10554 10557 10560 10564 10567 10571 10574 10577 10580 10585 10589 10594 10599 10603 10605 10607 10610 10615 10621 10626 10630 10637 10641 10640 10638 10639 10640 10640 10643 10647 10650 10652 10655
10414 10417 10419 10421 10423 10423 10424 10425 10426 10427 10430 10432 10435 10437 10439 10441 10443 10444 10446 10447 10449 10450 10451 10454 10457 10460 10463 10466 10467 10468 10469 10469 10469 10471 10474 10478 10482 10487 10493 10497 10500 10504 10508 10511 10514 10517 10520 10525 10530 10533 10537 10540 10542 10546 10550 10554 10557 10560 10563 10566 10569 10573 10577 10583 10588 10592 10594 10597 10602 10606 10610 10614 10620 10629 10633 10632 10629 10629 10631 10633 10637 10641 10642 10644 10648
10401 10404 10406 10407 10410 10411 10410 10412 10413 10416 10418 10420 10423 10425 10427 10429 10431 10432 10433 10434 10436 10437 10439 10442 10445 10448 10451 10453 10454 10456 10457 10456 10456 10458 10461 10465 10469 10474 10479 10484 10488 10492 10496 10499 10503 10506 10509 10513 10518 10523 10526 10528 10530 10534 10539 10542 10545 10548 10552 10556 10559 10563 10566 10571 10576 10580 10583 10586 10592 10597 10599 10602 10610 10619 10623 10621 10618 10620 10624 10627 10631 10633 10634 10636 10640
10389 10392 10393 10395 10397 10398 10398 10399 10401 10404 10406 10408 10411 10413 10415 10417 10419 10419 10420 10422 10422 10423 10426 10429 10433 10435 10437 10439 10441 10443 10443 10443 10443 10445 10448 10451 10454 10460 10465 10470 10475 10480 10483 10487 10492 10495 10498 10502 10506 10511 10514 10516 10519 10522 10526 10529 10532 10537 10541 10545 10550 10552 10554 10559 10564 10569 10572 10576 10581 10587 10590 10591 10595 10604 10611 10611 10611 10614 10617 10619 10622 10625 10625 10628 10634
10379 10380 10381 10382 10383 10384 10385 10387 10390 10392 10395 10397 10400 10402 10403 10405 10406 10406 10407 10408 10408 10409 10413 10416 10419 10421 10423 10425 10428 10429 10429 10429 10430 10431 10433 10436 10439 10445 10451 10455 10460 10466 10470 10475 10479 10483 10486 10490 10494 10498 10501 10505 10507 10508 10511 10515 10519 10524 10529 10534 10538 10541 10544 10548 10553 10557 10560 10565 10571 10577 10580 10582 10584 10589 10597 10601 10603 10606 10608 10609 10613 10616 10618 10622 10627
10368 10368 10369 10370 10370 10369 10372 10375 10378 10381 10383 10386 10388 10390 10391 10392 10392 10393 10394 10393 10393 10396 10400 10403 10405 10406 10408 10410 10413 10414 10414 10414 10415 10417 10418 10420 10423 10429 10435 10440 10446 10451 10456 10461 10466 10470 10474 10478 10482 10485 10488 10492 10494 10494 10497 10501 10505 10511 10517 10521 10525 10529 10534 10538 10542 10545 10549 10554 10560 10566 10571 10576 10576 10575 10581 10589 10593 10596 10597 10599 10605 10609 10611 10615 10619
10356 10356 10359 10359 10356 10357 10361 10365 10367 10369 10372 10373 10376 10378 10379 10378 10378 10380 10380 10379 10380 10384 10387 10388 10390 10391 10392 10393 10396 10398 10399 10398 10398 10400 10402 10404 10407 10413 10419 10425 10431 10437 10442 10446 10451 10456 10461 10464 10468 10472 10476 10479 10480 10480 10482 10486 10491 10497 10503 10508 10513 10517 10523 10527 10531 10535 10539 10542 10549 10555 10560 10567 10566 10562 10568 10578 10584 10586 10587 10591 10599 10601 10602 10607 10611
10342 10346 10348 10347 10345 10347 10351 10354 10356 10359 10360 10361 10364 10366 10366 10365 10365 10367 10367 10367 10369 10373 10374 10374 10375 10376 10377 10377 10379 10381 10382 10381 10380 10383 10385 10387 10391 10397 10404 10410 10417 10422 10427 10431 10436 10441 10446 10450 10454 10458 10463 10466 10465 10465 10467 10471 10477 10484 10489 10495 10502 10507 10511 10516 10520 10524 10527 10530 10537 10544 10549 10555 10555 10553 10557 10566 10574 10578 10580 10583 10589 10591 10593 10598 10602
10332 10336 10336 10334 10336 10340 10342 10344 10345 10346 10348 10351 10353 10353 10352 10352 10353 10354 10355 10356 10359 10360 10360 10362 10363 10362 10362 10363 10364 10365 10366 10365 10364 10366 10369 10372 10377 10383 10389 10395 10402 10407 10410 10415 10420 10426 10431 10435 10439 10444 10448 10450 10450 10451 10452 10455 10463 10471 10475 10481 10490 10496 10500 10505 10509 10512 10515 10519 10526 10532 10537 10543 10545 10544 10548 10556 10564 10569 10572 10574 10578 10581 10584 10588 10591
10325 10325 10324 10325 10328 10331 10333 10334 10334 10335 10338 10340 10340 10339 10340 10341 10342 10343 10344 10346 10348 10349 10349 10350 10350 10349 10349 10350 10351 10351 10351 10351 10350 10352 10356 10359 10363 10368 10374 10380 10386 10390 10394 10399 10404 10409 10414 10419 10423 10427 10431 10433 10433 10435 10438 10441 10450 10458 10462 10469 10478 10483 10487 10494 10498 10501 10505 10509 10515 10521 10526 10531 10535 10536 10540 10547 10553 10558 10563 10565 10566 10568 10573 10580 10582
10316 10314 10315 10318 10319 10320 10322 10324 10325 10327 10328 10328 10327 10328 10329 10331 10332 10334 10335 10337 10338 10338 10338 10338 10339 10338 10338 10338 10338 10338 10338 10340 10341 10342 10344 10346 10349 10353 10360 10365 10369 10374 10378 10383 10388 10392 10396 10400 10405 10409 10413 10416 10418 10419 10423 10428 10436 10444 10450 10457 10465 10470 10475 10483 10487 10490 10494 10499 10504 10510 10515 10520 10525 10527 10531 10538 10544 10549 10553 10555 10554 10557 10565 10572 10574
10305 10305 10307 10310 10310 10311 10313 10314 10316 10318 10318 10317 10317 10319 10320 10322 10324 10325 10326 10327 10327 10327 10327 10327 10328 10328 10327 10326 10327 10327 10328 10330 10332 10332 10333 10334 10337 10341 10346 10351 10354 10358 10364 10368 10370 10374 10378 10382 10387 10390 10395 10400 10403 10405 10409 10414 10422 10432 10439 10444 10449 10456 10465 10473 10476 10478 10483 10489 10494 10500 10505 10510 10515 10518 10522 10528 10534 10538 10541 10544 10547 10550 10557 10562 10565
10295 10297 10299 10300 10301 10303 10305 10306 10308 10308 10308 10309 10310 10311 10312 10314 10315 10316 10317 10317 10317 10316 10316 10317 10318 10318 10317 10316 10316 10318 10319 10321 10322 10322 10323 10325 10327 10330 10334 10338 10340 10345 10350 10352 10354 10357 10361 10365 10370 10373 10377 10384 10389 10391 10395 10401 10409 10419 10426 10429 10435 10446 10456 10462 10464 10466 10471 10478 10485 10490 10495 10500 10504 10508 10513 10518 10523 10527 10530 10534 10539 10544 10548 10552 10556
10289 10290 10290 10291 10294 10296 10298 10298 10299 10300 10301 10302 10303 10303 10305 10306 10307 10307 10308 10308 10307 10306 10306 10307 10308 10308 10308 10307 10308 10309 10311 10312 10312 10313 10315 10316 10318 10321 10324 10327 10329 10332 10336 10339 10339 10343 10347 10351 10355 10358 10363 10370 10374 10378 10383 10390 10397 10406 10412 10416 10424 10436 10446 10451 10452 10454 10459 10466 10474 10480 10484 10489 10493 10498 10503 10507 10512 10516 10520 10524 10531 10536 10540 10542 10545
10283 10283 10283 10285 10287 10289 10290 10291 10291 10293 10295 10296 10296 10296 10297 10298 10299 10299 10299 10299 10299 10298 10298 10299 10300 10299 10299 10300 10300 10301 10303 10304 10304 10305 10307 10308 10310 10312 10315 10317 10319 10321 10325 10326 10328 10331 10336 10340 10343 10348 10353 10358 10363 10368 10374 10381 10387 10393 10398 10404 10414 10426 10436 10439 10439 10442 10447 10454 10462 10469 10473 10478 10483 10488 10493 10497 10502 10507 10511 10515 10521 10527 10530 10533 10536
10276 10275 10277 10279 10281 10282 10283 10284 10286 10287 10288 10289 10290 10290 10290 10291 10292 10291 10291 10291 10291 10291 10291 10291 10292 10292 10292 10293 10293 10294 10295 10297 10297 10297 10300 10302 10303 10304 10307 10308 10310 10312 10315 10316 10319 10322 10327 10330 10334 10338 10343 10347 10352 10357 10363 10369 10373 10379 10386 10394 10405 10416 10422 10424 10425 10429 10435 10441 10449 10457 10462 10467 10473 10478 10483 10488 10493 10498 10501 10506 10511 10516 10520 10524 10528
10268 10269 10272 10273 10274 10276 10277 10278 10280 10281 10282 10283 10283 10283 10284 10284 10285 10284 10284 10284 10284 10284 10285 10285 10285 10285 10286 10286 10287 10288 10289 10290 10290 10291 10293 10295 10296 10298 10300 10301 10303 10305 10307 10309 10312 10316 10319 10322 10325 10329 10333 10337 10341 10346 10351 10355 10361 10368 10376 10385 10395 10402 10406 10407 10410 10416 10422 10429 10437 10445 10451 10456 10462 10467 10473 10478 10482 10487 10492 10497 10501 10505 10510 10515 10520
10263 10264 10265 10266 10268 10271 10272 10273 10274 10275 10276 10277 10278 10278 10278 10278 10278 10278 10278 10278 10278 10278 10279 10279 10279 10280 10280 10281 10281 10282 10283 10284 10285 10286 10288 10290 10291 10293 10294 10296 10297 10299 10301 10304 10307 10310 10312 10314 10317 10320 10324 10328 10332 10336 10340 10345 10351 10359 10367 10375 10382 10387 10390 10393 10399 10405 10412 10418 10425 10432 10438 10444 10450 10457 10462 10466 10471 10477 10483 10489 10492 10496 10502 10507 10511
10257 10258 10259 10261 10263 10266 10267 10268 10269 10270 10270 10271 10272 10273 10272 10272 10272 10272 10272 10273 10273 10273 10274 10274 10274 10274 10275 10276 10276 10277 10278 10279 10280 10281 10283 10285 10286 10288 10289 10291 10292 10294 10296 10299 10302 10304 10305 10307 10310 10313 10317 10320 10324 10328 10332 10338 10344 10351 10358 10364 10369 10373 10377 10383 10390 10396 10401 10406 10412 10419 10426 10433 10439 10445 10450 10455 10461 10468 10475 10481 10485 10489 10494 10499 10502
10251 10252 10255 10257 10259 10260 10261 10262 10264 10265 10265 10266 10267 10267 10267 10266 10267 10267 10268 10268 10268 10268 10269 10270 10270 10270 10271 10272 10272 10273 10274 10275 10276 10277 10279 10280 10282 10283 10284 10286 10288 10290 10292 10294 10296 10297 10299 10301 10304 10307 10310 10314 10318 10322 10326 10332 10338 10343 10349 10353 10357 10362 10368 10374 10380 10385 10389 10394 10401 10408 10416 10422 10428 10434 10439 10445 10451 10458 10466 10473 10477 10481 10486 10489 10491
10246 10248 10250 10251 10254 10255 10256 10257 10259 10260 10261 10261 10262 10262 10262 10262 10262 10263 10263 10263 10263 10264 10265 10266 10266 10266 10267 10268 10268 10269 10269 10270 10272 10273 10274 10276 10277 10279 10280 10281 10283 10285 10287 10289 10290 10292 10294 10296 10299 10302 10305 10309 10312 10316 10320 10326 10331 10336 10340 10345 10350 10355 10360 10365 10369 10373 10378 10384 10391 10399 10406 10412 10418 10424 10430 10436 10442 10449 10456 10461 10466 10471 10476 10479 10480
10242 10244 10245 10246 10249 10251 10252 10253 10254 10255 10256 10257 10256 10256 10257 10258 10258 10258 10259 10259 10259 10261 10262 10262 10262 10263 10263 10264 10265 10265 10265 10266 10268 10269 10270 10271 10273 10274 10276 10277 10279 10281 10282 10284 10286 10288 10290 10293 10295 10298 10301 10305 10308 10311 10315 10320 10325 10329 10334 10338 10343 10348 10352 10356 10360 10365 10371 10377 10384 10391 10398 10404 10409 10415 10421 10427 10433 10439 10445 10450 10456 10462 10466 10468 10471
10237 10239 10240 10242 10245 10246 10247 10248 10249 10250 10251 10252 10252 10252 10252 10254 10255 10254 10254 10255 10256 10257 10258 10258 10259 10259 10260 10260 10261 10261 10262 10263 10264 10265 10266 10267 10269 10270 10272 10273 10275 10277 10278 10280 10282 10284 10286 10289 10291 10294 10297 10300 10304 10307 10312 10316 10320 10325 10329 10333 10338 10342 10346 10350 10355 10361 10366 10372 10378 10384 10391 10396 10402 10407 10413 10419 10425 10430 10436 10441 10448 10452 10455 10459 10464
10232 10233 10235 10238 10241 10242 10243 10243 10244 10246 10247 10247 10247 10248 10248 10250 10251 10250 10250 10251 10253 10254 10254 10255 10255 10256 10256 10257 10257 10258 10258 10259 10260 10261 10262 10263 10264 10266 10267 10268 10270 10272 10274 10276 10278 10280 10282 10285 10287 10290 10293 10296 10300 10304 10308 10313 10317 10321 10324 10328 10333 10337 10341 10346 10351 10356 10361 10366 10372 10378 10384 10390 10395 10400 10405 10411 10417 10423 10428 10434 10438 10443 10447 10453 10459
10227 10229 10231 10234 10236 10238 10238 10239 10240 10241 10242 10243 10243 10243 10245 10246 10247 10247 10247 10248 10249 10250 10251 10252 10253 10253 10253 10254 10254 10254 10255 10256 10256 10257 10258 10259 10260 10261 10263 10264 10265 10268 10270 10271 10273 10276 10278 10281 10284 10287 10290 10294 10297 10301 10305 10309 10312 10316 10320 10324 10328 10332 10337 10341 10346 10351 10356 10361 10366 10372 10378 10383 10388 10394 10400 10406 10411 10416 10421 10425 10429 10435 10441 10447 10452
10222 10224 10227 10230 10232 10234 10234 10234 10235 10237 10238 10239 10239 10239 10241 10242 10243 10243 10244 10245 10246 10247 10248 10249 10250 10250 10250 10250 10251 10252 10252 10252 10253 10253 10254 10255 10256 10257 10259 10260 10261 10264 10266 10268 10269 10272 10275 10278 10281 10284 10287 10291 10294 10298 10301 10305 10309 10312 10316 10320 10324 10328 10333 10337 10341 10346 10351 10356 10361 10367 10373 10378 10383 10389 10395 10401 10405 10409 10413 10417 10423 10429 10435 10440 10445
10217 10220 10222 10225 10228 10230 10230 10229 10231 10233 10234 10235 10235 10236 10237 10238 10239 10240 10241 10242 10244 10245 10245 10246 10247 10248 10247 10248 10248 10249 10249 10249 10249 10250 10250 10251 10252 10253 10254 10256 10258 10260 10262 10264 10266 10269 10272 10275 10278 10281 10285 10288 10291 10294 10298 10302 10305 10309 10313 10317 10321 10325 10329 10333 10337 10342 10347 10352 10358 10363 10368 10373 10379 10385 10390 10394 10398 10402 10406 10411 10417 10423 10428 10434 10440
10212 10215 10218 10222 10225 10226 10225 10225 10227 10229 10230 10231 10231 10232 10233 10235 10236 10237 10238 10240 10241 10242 10243 10244 10245 10245 10245 10245 10246 10246 10246 10246 10246 10247 10247 10247 10248 10249 10250 10252 10254 10256 10258 10261 10263 10266 10269 10272 10275 10278 10282 10285 10288 10292 10295 10299 10302 10306 10310 10314 10318 10322 10325 10329 10334 10339 10344 10349 10354 10359 10364 10369 10374 10380 10384 10388 10391 10395 10400 10405 10411 10417 10423 10429 10434
10208 10211 10215 10218 10221 10222 10221 10221 10223 10225 10227 10227 10227 10228 10230 10232 10233 10235 10236 10237 10239 10240 10241 10242 10242 10242 10243 10243 10243 10243 10243 10243 10243 10243 10243 10244 10244 10245 10246 10247 10249 10251 10254 10257 10260 10262 10266 10269 10272 10275 10278 10282 10286 10289 10292 10295 10299 10304 10307 10311 10315 10319 10323 10327 10332 10337 10341 10345 10349 10354 10359 10364 10370 10374 10378 10381 10385 10390 10395 10400 10406 10413 10418 10423 10428
10204 10207 10211 10214 10217 10218 10217 10218 10219 10221 10223 10223 10224 10225 10227 10229 10231 10232 10233 10235 10237 10238 10239 10239 10240 10240 10240 10240 10240 10240 10240 10240 10240 10240 10240 10240 10240 10241 10242 10243 10245 10247 10250 10252 10256 10259 10262 10265 10268 10271 10274 10278 10282 10285 10289 10292 10296 10300 10305 10309 10313 10317 10321 10325 10330 10334 10338 10342 10346 10351 10355 10359 10363 10367 10371 10376 10381 10386 10392 10398 10403 10408 10413 10418 10423
10200 10204 10207 10211 10213 10213 10213 10214 10216 10218 10219 10220 10221 10222 10224 10226 10228 10230 10231 10233 10234 10236 10236 10237 10238 10238 10238 10238 10238 10238 10237 10237 10237 10236 10236 10236 10236 10237 10238 10239 10241 10243 10246 10248 10251 10255 10258 10261 10264 10267 10271 10274 10278 10282 10285 10288 10292 10297 10302 10307 10311 10314 10318 10323 10327 10332 10335 10339 10343 10346 10350 10353 10357 10361 10366 10372 10377 10383 10388 10393 10398 10404 10409 10414 10418
10197 10200 10204 10207 10209 10209 10209 10210 10212 10214 10215 10216 10218 10220 10222 10224 10225 10227 10229 10230 10232 10233 10234 10235 10236 10236 10236 10236 10236 10235 10235 10234 10233 10233 10233 10233 10233 10234 10235 10236 10238 10240 10242 10245 10248 10251 10254 10258 10261 10264 10267 10271 10274 10278 10281 10284 10289 10294 10299 10304 10308 10312 10316 10321 10325 10329 10332 10335 10339 10343 10346 10350 10354 10359 10363 10368 10373 10378 10382 10388 10394 10400 10405 10409 10412
10194 10197 10200 10203 10204 10205 10205 10206 10208 10210 10211 10213 10215 10217 10219 10221 10223 10225 10226 10228 10230 10231 10232 10233 10234 10234 10234 10234 10233 10233 10232 10231 10231 10230 10230 10230 10230 10231 10232 10233 10235 10237 10240 10242 10245 10248 10251 10255 10258 10261 10264 10267 10271 10274 10278 10282 10286 10291 10296 10301 10305 10309 10314 10318 10322 10325 10329 10332 10336 10340 10344 10347 10351 10355 10359 10363 10368 10372 10377 10382 10387 10392 10397 10401 10405
10190 10193 10196 10198 10200 10201 10202 10203 10204 10206 10208 10210 10212 10214 10216 10218 10220 10222 10224 10226 10228 10229 10230 10231 10232 10232 10232 10232 10231 10230 10230 10230 10229 10229 10228 10228 10228 10229 10230 10231 10233 10235 10238 10240 10243 10246 10249 10253 10256 10259 10262 10265 10269 10272 10276 10280 10285 10290 10295 10299 10303 10307 10311 10315 10318 10322 10325 10329 10333 10337 10341 10344 10347 10351 10355 10359 10363 10367 10372 10377 10382 10386 10391 10396 10400
10186 10189 10192 10194 10196 10197 10198 10199 10201 10203 10205 10207 10209 10211 10213 10216 10218 10220 10222 10224 10226 10227 10228 10229 10230 10230 10230 10230 10229 10229 10229 10228 10228 10228 10227 10227 10228 10228 10229 10230 10232 10234 10236 10239 10242 10245 10248 10251 10255 10259 10262 10265 10269 10272 10276 10280 10285 10289 10293 10297 10301 10305 10310 10313 10317 10320 10324 10327 10330 10334 10337 10340 10344 10348 10352 10357 10362 10366 10371 10375 10380 10385 10389 10393 10398
10182 10185 10187 10190 10192 10193 10194 10195 10197 10199 10201 10203 10206 10208 10210 10213 10215 10217 10220 10222 10224 10225 10226 10228 10228 10229 10229 10228 10228 10228 10228 10228 10228 10227 10227 10227 10228 10228 10229 10230 10231 10233 10236 10239 10242 10245 10248 10252 10255 10259 10263 10267 10270 10274 10278 10282 10286 10290 10294 10297 10301 10304 10308 10312 10315 10317 10320 10323 10326 10330 10334 10338 10343 10347 10352 10357 10362 10367 10371 10375 10379 10383 10387 10391 10395
10178 10180 10183 10185 10187 10189 10190 10192 10194 10196 10198 10200 10202 10205 10207 10210 10212 10214 10217 10219 10221 10223 10225 10226 10227 10228 10228 10227 10227 10227 10227 10228 10228 10228 10227 10228 10228 10229 10230 10232 10233 10235 10237 10240 10243 10246 10249 10253 10256 10260 10264 10268 10272 10275 10279 10283 10287 10291 10294 10297 10300 10303 10306 10308 10311 10313 10316 10320 10324 10329 10333 10336 10340 10345 10350 10355 10360 10364 10368 10372 10376 10380 10384 10388 10392
10174 10176 10179 10181 10183 10185 10186 10188 10190 10192 10195 10197 10199 10202 10204 10207 10209 10212 10214 10217 10219 10221 10223 10224 10225 10226 10227 10227 10227 10227 10227 10228 10228 10228 10228 10229 10230 10231 10232 10234 10236 10238 10240 10242 10245 10248 10251 10254 10258 10262 10265 10269 10272 10276 10279 10283 10287 10290 10293 10296 10299 10301 10303 10306 10308 10311 10314 10318 10321 10325 10329 10333 10337 10342 10347 10351 10356 10360 10364 10368 10372 10376 10379 10383 10387
10169 10172 10174 10176 10179 10181 10182 10184 10186 10189 10191 10193 10196 10199 10201 10204 10206 10209 10211 10214 10216 10218 10220 10222 10224 10225 10226 10226 10226 10227 10227 10228 10228 10229 10229 10230 10231 10233 10234 10235 10237 10239 10242 10244 10247 10250 10253 10255 10259 10263 10267 10270 10274 10277 10280 10283 10286 10289 10292 10295 10298 10300 10303 10305 10308 10310 10313 10316 10319 10322 10326 10331 10335 10339 10343 10348 10352 10357 10361 10365 10368 10371 10375 10379 10383
10165 10167 10170 10172 10174 10176 10178 10180 10182 10185 10187 10190 10192 10195 10198 10201 10203 10206 10208 10211 10214 10216 10218 10220 10222 10224 10225 10225 10226 10226 10227 10227 10228 10229 10230 10232 10233 10235 10237 10238 10239 10241 10243 10246 10249 10252 10254 10257 10260 10264 10267 10271 10274 10277 10280 10282 10284 10287 10290 10293 10296 10299 10302 10304 10307 10310 10313 10316 10319 10323 10326 10329 10333 10337 10341 10346 10350 10354 10358 10361 10364 10368 10372 10376 10379
10160 10162 10165 10167 10169 10171 10174 10176 10178 10181 10184 10186 10189 10192 10194 10197 10200 10203 10205 10208 10211 10213 10216 10218 10220 10222 10223 10225 10225 10226 10227 10227 10228 10230 10231 10233 10235 10237 10239 10241 10242 10243 10245 10248 10250 10253 10256 10259 10261 10264 10267 10271 10274 10277 10279 10282 10284 10286 10289 10292 10295 10298 10300 10303 10306 10309 10312 10315 10318 10321 10324 10327 10331 10335 10340 10344 10348 10351 10354 10358 10361 10365 10368 10371 10374